Time,TemperatureF,DewpointF,PressureIn,WindDirection,WindDirectionDegrees,WindSpeedMPH,WindSpeedGustMPH,Humidity,HourlyPrecipIn,Conditions,Clouds,dailyrainin,SoftwareType,DateUTC
2013-05-21 00:00:00,77.8,74.6,29.91,SE,142,5.0,5.0,90,0.00,,,0.00,Wunderground v.1.15,2013-05-21 05:00:00,
2013-05-21 00:05:00,77.8,74.6,29.91,SSE,163,4.0,5.0,90,0.00,,,0.00,Wunderground v.1.15,2013-05-21 05:05:00,
2013-05-21 00:15:00,77.7,74.9,29.91,SE,142,4.0,4.0,91,0.00,,,0.00,Wunderground v.1.15,2013-05-21 05:15:00,
2013-05-21 00:20:00,77.6,74.8,29.91,SSE,163,3.0,4.0,91,0.00,,,0.00,Wunderground v.1.15,2013-05-21 05:20:00,
2013-05-21 00:25:00,77.5,74.7,29.92,SSE,153,3.0,4.0,91,0.00,,,0.00,Wunderground v.1.15,2013-05-21 05:25:00,
2013-05-21 00:35:00,77.5,74.7,29.92,SSE,165,4.0,4.0,91,0.00,,,0.00,Wunderground v.1.15,2013-05-21 05:35:00,
2013-05-21 00:40:00,77.5,74.7,29.92,SSE,163,4.0,4.0,91,0.00,,,0.00,Wunderground v.1.15,2013-05-21 05:40:00,
2013-05-21 00:45:00,77.5,74.7,29.92,SSE,150,4.0,4.0,91,0.00,,,0.00,Wunderground v.1.15,2013-05-21 05:45:00,
2013-05-21 00:50:00,77.5,74.7,29.92,South,169,4.0,6.0,91,0.00,,,0.00,Wunderground v.1.15,2013-05-21 05:50:00,
2013-05-21 00:55:00,77.5,74.7,29.93,SSE,147,4.0,6.0,91,0.00,,,0.00,Wunderground v.1.15,2013-05-21 05:55:00,
2013-05-21 01:00:00,77.4,74.9,29.92,South,185,4.0,5.0,92,0.00,,,0.00,Wunderground v.1.15,2013-05-21 06:00:00,
2013-05-21 01:05:00,77.4,74.9,29.92,SE,134,4.0,10.0,92,0.00,,,0.00,Wunderground v.1.15,2013-05-21 06:05:00,
2013-05-21 01:10:00,77.3,74.8,29.92,South,176,3.0,10.0,92,0.00,,,0.00,Wunderground v.1.15,2013-05-21 06:10:00,
2013-05-21 01:15:00,77.3,74.8,29.92,SE,146,4.0,10.0,92,0.00,,,0.00,Wunderground v.1.15,2013-05-21 06:15:00,
2013-05-21 01:20:00,77.3,74.8,29.92,SSE,155,4.0,4.0,92,0.00,,,0.00,Wunderground v.1.15,2013-05-21 06:20:00,
2013-05-21 01:25:00,77.4,74.9,29.92,South,172,4.0,10.0,92,0.00,,,0.00,Wunderground v.1.15,2013-05-21 06:25:00,
2013-05-21 01:35:00,77.4,74.9,29.92,SSE,160,4.0,10.0,92,0.00,,,0.00,Wunderground v.1.15,2013-05-21 06:35:00,
2013-05-21 01:40:00,77.4,74.9,29.92,SSE,148,3.0,10.0,92,0.00,,,0.00,Wunderground v.1.15,2013-05-21 06:40:00,
2013-05-21 01:45:00,77.4,74.9,29.92,SE,139,3.0,10.0,92,0.00,,,0.00,Wunderground v.1.15,2013-05-21 06:45:00,
2013-05-21 01:50:00,77.3,74.8,29.92,SSE,162,3.0,10.0,92,0.00,,,0.00,Wunderground v.1.15,2013-05-21 06:50:00,
2013-05-21 01:55:00,77.3,74.8,29.92,South,176,2.0,10.0,92,0.00,,,0.00,Wunderground v.1.15,2013-05-21 06:55:00,
2013-05-21 02:00:00,77.3,74.8,29.91,South,169,2.0,10.0,92,0.00,,,0.00,Wunderground v.1.15,2013-05-21 07:00:00,
2013-05-21 02:10:00,77.1,74.6,29.91,SE,134,2.0,2.0,92,0.00,,,0.00,Wunderground v.1.15,2013-05-21 07:10:00,
2013-05-21 02:15:00,77.0,74.8,29.91,SSE,157,2.0,10.0,93,0.00,,,0.00,Wunderground v.1.15,2013-05-21 07:15:00,
2013-05-21 02:20:00,77.1,74.9,29.91,South,180,2.0,10.0,93,0.00,,,0.00,Wunderground v.1.15,2013-05-21 07:20:00,
2013-05-21 02:25:00,77.0,74.8,29.91,SE,130,2.0,10.0,93,0.00,,,0.00,Wunderground v.1.15,2013-05-21 07:25:00,
2013-05-21 02:30:00,76.9,74.7,29.91,SSE,151,2.0,2.0,93,0.00,,,0.00,Wunderground v.1.15,2013-05-21 07:30:00,
2013-05-21 02:40:00,76.6,74.4,29.90,South,170,1.0,10.0,93,0.00,,,0.00,Wunderground v.1.15,2013-05-21 07:40:00,
2013-05-21 02:45:00,76.5,74.6,29.90,SE,136,1.0,10.0,94,0.00,,,0.00,Wunderground v.1.15,2013-05-21 07:45:00,
2013-05-21 02:50:00,76.5,74.6,29.90,SE,143,2.0,10.0,94,0.00,,,0.00,Wunderground v.1.15,2013-05-21 07:50:00,
2013-05-21 02:55:00,76.5,74.6,29.89,SSE,155,2.0,10.0,94,0.00,,,0.00,Wunderground v.1.15,2013-05-21 07:55:00,
2013-05-21 03:00:00,76.4,74.5,29.90,ESE,123,2.0,10.0,94,0.00,,,0.00,Wunderground v.1.15,2013-05-21 08:00:00,
2013-05-21 03:05:00,76.4,74.5,29.89,SE,129,2.0,10.0,94,0.00,,,0.00,Wunderground v.1.15,2013-05-21 08:05:00,
2013-05-21 03:15:00,76.5,74.6,29.89,SSE,147,2.0,10.0,94,0.00,,,0.00,Wunderground v.1.15,2013-05-21 08:15:00,
2013-05-21 03:20:00,76.4,74.5,29.89,SE,141,2.0,10.0,94,0.00,,,0.00,Wunderground v.1.15,2013-05-21 08:20:00,